Wind_Speed
25 24 23 20 16 15 15 15 15 19 21 23 22 21 19 19 19 18 18 17 16 15 14 13 13 13 14 14 14 15 15 16 17 18 19 20 21 22 23 24 25 26 26 27
26 23 22 21 16 14 15 16 16 19 22 23 24 22 21 21 19 19 19 18 18 18 18 17 16 17 17 18 18 19 19 20 21 21 22 23 24 24 25 27 28 28 29 29
27 23 23 22 19 18 19 19 19 22 24 24 24 23 21 20 19 19 20 20 20 20 20 20 20 20 20 21 22 22 23 24 25 25 26 27 27 28 29 30 30 30 31 31
28 26 26 23 24 23 21 21 23 26 26 25 25 24 24 23 21 21 21 21 22 22 23 23 23 24 24 25 26 26 27 28 29 30 31 31 31 31 32 31 32 32 33 33
28 27 26 25 24 25 24 23 24 25 24 24 24 25 24 23 23 22 22 22 23 24 24 25 25 26 26 27 29 30 30 30 30 31 33 34 33 33 33 34 35 36 37 37
29 27 26 27 26 25 24 24 24 25 26 26 26 25 23 22 22 22 23 23 24 24 25 26 27 28 29 29 31 32 32 31 32 32 33 33 34 34 35 35 36 37 38 38
28 27 28 29 27 25 26 27 26 24 24 24 24 24 22 22 22 23 23 24 25 26 26 27 28 28 29 30 31 32 32 33 34 35 36 36 37 36 36 36 37 38 39 40
29 29 31 31 27 26 26 25 22 22 24 23 24 24 23 23 24 24 24 25 25 26 27 28 28 29 29 30 32 33 34 34 35 35 36 36 36 35 36 37 38 40 41 42
29 30 30 28 26 24 23 24 24 24 25 25 26 25 25 25 25 25 26 26 26 26 27 28 29 30 30 30 31 33 34 35 36 35 35 35 36 37 38 38 38 39 40 41
23 24 25 25 26 25 24 24 26 26 26 26 27 27 26 26 26 26 27 27 28 28 28 29 29 30 31 31 31 32 34 34 34 34 35 36 36 36 37 37 38 40 41 42
23 23 21 23 23 22 22 24 25 25 26 26 27 27 27 27 27 28 28 29 29 29 29 29 29 29 30 30 31 31 31 32 32 33 34 34 35 36 37 39 41 42 43 44
19 20 21 22 22 22 23 24 24 25 25 26 26 27 27 27 27 28 29 29 29 29 29 30 30 30 31 31 32 32 32 33 34 35 35 36 37 38 40 41 42 44 45 47
20 20 20 22 23 23 23 24 24 25 26 26 27 27 27 28 28 29 30 31 31 31 32 32 32 32 32 33 34 35 35 36 36 37 38 39 40 41 43 44 46 47 49 51
20 20 21 21 22 23 24 24 25 26 26 26 27 27 28 29 29 29 30 31 31 31 32 33 34 35 35 35 36 37 37 38 38 39 40 42 43 44 46 48 49 51 53 55
19 19 20 21 22 23 24 24 25 25 26 26 27 27 28 29 29 30 30 31 32 32 32 33 34 35 35 35 36 37 38 39 40 41 43 44 46 48 50 51 53 55 56 57
19 20 20 21 22 23 24 24 24 25 26 26 27 27 28 28 29 30 31 32 33 33 33 34 35 35 36 36 37 38 39 41 42 43 45 47 48 50 51 53 54 56 56 56
19 20 21 21 22 23 23 24 24 25 26 27 28 29 29 30 31 31 32 33 33 34 35 36 37 37 37 38 39 41 42 44 45 46 48 49 50 51 52 53 53 53 53 53
20 20 20 21 22 23 24 24 25 25 26 27 28 29 30 30 31 33 34 35 36 36 37 37 38 39 39 41 42 43 45 46 47 48 49 49 49 50 50 50 50 50 49 48
20 21 21 22 23 24 25 26 26 27 28 29 29 30 32 33 34 35 36 37 37 38 38 39 40 41 42 43 44 45 46 47 47 47 47 47 47 47 47 46 46 45 44 43
22 22 23 24 24 25 26 27 27 29 30 31 32 32 33 34 35 36 37 38 39 39 40 41 42 43 44 44 45 45 45 45 45 45 44 44 44 44 43 42 41 40 40 39
23 24 24 25 26 27 28 28 29 31 31 32 33 33 35 36 37 38 38 39 39 41 41 42 43 43 44 44 44 43 43 43 42 41 41 41 40 39 38 37 36 36 35 34
24 25 26 27 27 28 29 30 31 32 33 34 35 36 37 38 39 39 39 39 40 41 42 42 42 42 42 41 41 41 41 40 39 38 38 37 35 35 34 33 32 31 30 28
25 26 28 29 30 30 31 32 33 34 35 36 37 38 38 39 39 39 39 40 40 40 40 39 39 39 39 39 39 38 38 37 36 35 34 33 32 32 31 30 29 28 27 25
27 28 29 30 31 32 33 34 35 37 38 38 39 39 38 38 39 38 39 39 39 39 38 38 38 38 38 37 37 36 35 34 33 32 31 30 30 29 28 27 26 25 24 23
28 30 31 32 33 34 35 36 37 38 38 38 38 38 37 37 37 36 36 37 37 38 38 37 37 36 35 35 34 33 31 30 29 29 29 28 27 25 25 25 24 23 22 20
29 31 32 33 34 35 36 37 37 38 37 37 37 37 36 36 35 35 35 36 36 36 35 34 34 33 33 32 31 29 28 27 26 26 25 24 23 23 22 21 21 20 19 18
31 32 32 33 34 35 35 36 36 37 37 36 35 35 35 35 34 34 34 34 33 32 31 31 31 31 30 29 27 26 25 25 24 24 23 21 21 20 20 19 19 18 17 17
Wind_Direction
243 252 263 272 276 260 252 258 263 274 279 283 283 286 289 291 292 290 291 290 289 287 284 279 275 272 271 271 270 268 266 265 265 266 265 266 267 268 270 271 273 274 276 278
241 248 260 267 271 269 266 261 264 268 273 275 279 283 285 284 286 284 283 286 284 283 282 279 278 276 274 273 273 272 270 269 269 269 271 271 271 271 271 272 273 275 275 276
240 241 250 262 265 262 261 258 260 262 269 273 276 281 285 288 286 281 281 281 282 280 281 277 276 275 275 276 276 276 274 274 273 272 272 272 272 272 273 273 273 275 275 275
239 241 246 253 255 255 253 258 262 263 266 271 276 281 285 288 287 283 280 280 280 279 279 277 276 276 275 276 277 277 278 277 275 273 274 273 273 274 273 273 274 275 276 276
238 242 249 247 250 251 250 253 261 263 267 272 276 279 283 284 284 282 280 279 280 279 279 279 277 278 278 279 278 279 277 276 277 277 278 275 273 275 277 279 280 279 277 278
236 240 246 247 250 252 256 254 259 263 265 268 275 278 281 282 282 281 281 281 283 282 282 282 281 281 279 279 279 280 279 277 279 281 279 276 274 275 278 280 281 280 280 280
235 239 245 250 251 257 256 262 264 263 266 269 275 280 283 284 283 282 282 283 283 283 281 282 282 282 282 282 281 280 280 282 282 282 280 278 278 277 279 281 282 282 283 283
235 237 243 248 254 258 259 260 261 266 270 275 277 280 284 285 285 284 283 284 285 284 283 282 282 282 282 283 283 282 281 282 282 281 283 281 281 281 281 282 283 284 283 284
231 237 242 244 252 258 261 266 268 269 272 274 277 280 283 284 285 285 284 283 284 285 285 284 282 282 283 284 284 284 283 283 282 281 283 283 282 284 285 286 287 287 286 285
232 238 242 248 254 257 263 267 269 270 273 274 278 280 282 283 284 285 285 284 283 284 284 284 284 283 283 283 284 286 285 284 282 282 284 284 285 286 286 286 287 289 289 289
235 243 253 256 260 263 267 270 271 270 274 278 279 280 283 284 284 285 286 285 284 282 283 283 284 285 285 286 286 286 286 287 288 287 288 289 289 289 289 289 290 291 292 293
251 253 255 261 263 269 272 272 274 276 279 281 281 283 284 284 285 285 285 286 286 285 285 285 285 285 286 287 287 287 287 287 287 289 289 289 289 289 290 291 292 292 293 294
257 259 261 265 267 272 275 276 277 278 280 281 282 283 284 285 285 285 285 285 285 286 287 287 287 285 286 287 288 288 289 289 290 291 291 292 293 293 293 293 294 294 294 294
260 263 267 269 272 274 275 276 278 280 281 282 283 284 284 285 285 285 285 286 287 288 289 289 289 287 287 289 288 288 288 289 291 292 293 294 294 295 295 295 295 295 296 296
265 267 270 272 274 275 276 277 279 280 280 282 283 284 285 286 286 286 286 288 290 291 292 291 290 290 290 291 291 290 290 291 293 294 294 295 295 295 295 296 296 297 297 297
269 271 273 274 275 277 278 280 280 281 281 281 283 284 286 287 288 288 289 290 293 294 293 293 292 292 293 295 295 295 295 295 295 296 297 296 296 296 297 297 298 298 298 298
270 272 274 275 276 277 279 279 280 281 282 283 285 287 288 289 289 290 292 293 295 297 297 296 295 294 293 294 295 296 297 297 297 298 298 298 298 298 298 299 299 299 299 299
271 273 275 276 277 278 279 279 281 284 286 287 288 289 290 290 291 293 294 295 297 298 297 297 297 296 296 298 299 299 300 299 299 299 299 300 299 299 299 300 300 301 301 301
272 274 276 278 279 280 281 282 284 286 288 289 290 291 291 292 293 294 296 297 297 298 298 298 299 299 300 301 301 301 300 300 300 301 301 301 301 301 301 302 302 302 302 302
274 277 279 280 281 282 284 285 285 287 289 289 290 290 291 292 294 296 297 298 299 299 300 301 301 302 302 302 301 301 301 301 302 302 302 302 302 302 302 303 303 303 303 303
276 278 280 281 282 284 285 285 286 288 289 290 291 292 293 294 295 296 298 299 299 300 300 300 301 301 301 301 300 301 301 302 303 303 303 303 303 303 303 303 304 304 304 304
277 279 281 282 285 287 287 287 289 289 290 292 293 294 295 296 297 298 299 299 300 300 301 301 301 301 300 300 301 301 302 303 303 303 303 303 303 304 304 305 306 306 307 307
279 281 282 283 285 287 288 289 291 292 293 294 296 297 298 298 299 300 300 300 301 301 301 302 301 302 302 302 302 303 303 304 304 304 304 304 304 305 305 305 306 307 308 308
280 281 282 284 286 288 289 291 292 293 294 295 297 297 297 298 299 300 299 300 300 302 302 303 303 303 303 303 304 304 304 304 304 304 305 305 305 305 305 306 307 308 308 308
281 281 282 284 286 289 290 292 293 294 295 296 297 297 297 299 299 298 297 298 299 301 302 302 303 303 304 304 304 304 305 305 305 306 306 307 307 307 307 308 309 309 308 308
282 283 285 287 289 290 292 293 294 295 296 297 298 298 298 298 297 297 296 297 299 301 302 303 304 305 306 306 305 304 305 306 307 308 309 309 309 309 310 311 312 312 310 310
282 283 285 287 289 291 292 294 294 296 297 297 297 296 296 297 297 296 296 298 300 301 303 304 305 306 306 306 305 305 305 307 308 309 310 309 310 312 312 313 314 315 314 314
Height
5834 5834 5834 5834 5835 5836 5836 5838 5839 5838 5835 5833 5831 5832 5833 5833 5833 5833 5833 5833 5833 5834 5833 5833 5833 5833 5833 5834 5834 5835 5835 5835 5836 5837 5837 5838 5838 5839 5839 5839 5839 5839 5839 5838
5828 5829 5829 5830 5831 5831 5833 5834 5834 5834 5832 5830 5828 5828 5828 5829 5829 5830 5829 5829 5829 5829 5829 5829 5829 5829 5829 5829 5830 5830 5830 5831 5831 5831 5831 5832 5832 5832 5832 5831 5831 5831 5830 5829
5822 5825 5824 5825 5827 5828 5828 5829 5829 5829 5827 5826 5824 5824 5823 5824 5825 5824 5825 5825 5825 5824 5823 5824 5824 5825 5825 5825 5825 5825 5824 5824 5824 5824 5824 5824 5824 5824 5823 5822 5822 5822 5822 5821
5815 5818 5819 5823 5821 5821 5822 5822 5823 5822 5821 5821 5820 5820 5820 5820 5820 5820 5820 5820 5820 5820 5819 5819 5819 5818 5819 5819 5818 5818 5817 5817 5817 5815 5816 5815 5815 5815 5814 5813 5812 5812 5812 5812
5809 5811 5812 5814 5813 5813 5815 5816 5815 5815 5815 5815 5815 5815 5816 5816 5816 5816 5815 5815 5815 5814 5813 5813 5813 5813 5811 5812 5810 5809 5808 5808 5808 5807 5806 5805 5806 5805 5805 5804 5803 5803 5802 5802
5801 5803 5805 5805 5806 5807 5810 5809 5809 5809 5809 5810 5810 5810 5811 5810 5810 5810 5810 5809 5809 5809 5808 5807 5807 5807 5806 5806 5804 5802 5801 5799 5800 5799 5797 5795 5796 5796 5796 5795 5794 5793 5792 5791
5794 5797 5797 5797 5799 5802 5804 5804 5804 5803 5802 5802 5804 5804 5805 5805 5805 5804 5804 5803 5803 5802 5802 5801 5800 5800 5799 5798 5797 5795 5793 5793 5792 5791 5789 5787 5787 5786 5785 5785 5784 5783 5782 5780
5788 5790 5792 5791 5793 5796 5797 5796 5796 5797 5797 5798 5798 5798 5799 5799 5799 5798 5797 5797 5796 5796 5795 5794 5793 5792 5791 5790 5789 5787 5786 5784 5783 5782 5780 5779 5778 5777 5775 5775 5774 5772 5771 5769
5779 5783 5783 5785 5787 5788 5789 5790 5791 5793 5792 5793 5793 5793 5793 5792 5792 5792 5791 5791 5790 5789 5788 5787 5785 5784 5783 5782 5780 5779 5777 5775 5773 5772 5772 5770 5769 5768 5766 5764 5762 5761 5759 5757
5773 5775 5777 5779 5781 5781 5783 5784 5785 5786 5786 5787 5787 5786 5786 5786 5786 5785 5784 5783 5782 5781 5780 5779 5778 5776 5775 5774 5772 5770 5768 5767 5765 5763 5762 5761 5759 5758 5756 5754 5752 5750 5748 5745
5767 5770 5771 5773 5775 5775 5777 5778 5779 5780 5780 5780 5781 5780 5780 5779 5779 5778 5777 5776 5774 5773 5772 5771 5770 5768 5767 5765 5763 5762 5759 5758 5756 5754 5753 5751 5749 5747 5745 5743 5740 5738 5735 5732
5764 5766 5768 5769 5769 5770 5771 5773 5773 5774 5774 5774 5774 5773 5772 5771 5771 5770 5769 5768 5766 5765 5764 5762 5761 5760 5758 5756 5755 5753 5751 5749 5747 5745 5743 5741 5739 5736 5733 5731 5728 5725 5722 5719
5760 5761 5762 5764 5764 5765 5766 5767 5767 5767 5767 5767 5766 5766 5765 5764 5763 5762 5761 5760 5759 5757 5755 5754 5752 5751 5749 5747 5745 5743 5741 5739 5736 5734 5732 5729 5727 5724 5721 5718 5715 5711 5708 5704
5755 5756 5757 5758 5759 5760 5760 5760 5761 5760 5760 5760 5759 5758 5758 5756 5755 5754 5753 5751 5750 5748 5746 5745 5743 5741 5739 5737 5735 5733 5730 5728 5726 5723 5720 5717 5714 5711 5708 5704 5700 5696 5691 5687
5750 5751 5752 5753 5753 5753 5754 5754 5754 5754 5753 5753 5752 5751 5750 5749 5747 5746 5744 5743 5741 5739 5737 5735 5733 5731 5729 5727 5725 5722 5720 5717 5714 5711 5708 5705 5701 5697 5693 5689 5684 5680 5675 5669
5745 5746 5747 5748 5748 5748 5748 5748 5748 5747 5746 5746 5745 5744 5742 5741 5739 5738 5736 5734 5732 5730 5728 5726 5724 5721 5719 5717 5714 5711 5709 5706 5703 5699 5695 5692 5688 5683 5678 5674 5668 5663 5658 5652
5741 5742 5742 5742 5742 5742 5742 5741 5741 5740 5739 5738 5737 5736 5735 5733 5731 5730 5727 5725 5723 5721 5718 5716 5714 5711 5709 5706 5703 5700 5696 5693 5689 5685 5682 5677 5672 5667 5662 5657 5652 5647 5641 5636
5736 5736 5736 5736 5736 5736 5736 5735 5734 5733 5732 5731 5730 5728 5727 5725 5723 5721 5718 5716 5714 5711 5708 5706 5703 5700 5698 5694 5691 5687 5684 5679 5675 5671 5667 5662 5657 5652 5647 5642 5637 5631 5626 5621
5730 5730 5730 5730 5730 5729 5729 5728 5727 5726 5725 5723 5722 5720 5718 5716 5714 5712 5709 5707 5704 5701 5698 5695 5692 5689 5686 5682 5678 5674 5670 5666 5661 5657 5652 5647 5643 5638 5633 5627 5622 5617 5613 5608
5724 5724 5724 5724 5723 5722 5721 5720 5719 5718 5717 5715 5714 5712 5709 5707 5705 5702 5700 5697 5694 5691 5688 5684 5681 5677 5673 5669 5665 5661 5657 5652 5648 5643 5639 5634 5629 5624 5620 5615 5610 5606 5601 5597
5718 5717 5717 5716 5716 5715 5714 5712 5711 5710 5708 5706 5704 5702 5700 5698 5695 5693 5690 5687 5683 5679 5676 5673 5669 5665 5661 5657 5652 5648 5644 5640 5635 5631 5627 5622 5618 5613 5608 5604 5600 5595 5591 5587
5711 5710 5709 5708 5708 5707 5705 5704 5703 5701 5699 5697 5695 5692 5690 5687 5684 5682 5679 5676 5672 5668 5665 5661 5657 5653 5649 5645 5640 5636 5632 5628 5624 5620 5616 5611 5607 5603 5599 5595 5591 5586 5582 5578
5703 5702 5701 5700 5699 5698 5697 5695 5693 5691 5689 5687 5684 5682 5679 5676 5673 5670 5668 5664 5660 5657 5653 5649 5645 5641 5637 5634 5630 5625 5621 5617 5613 5609 5605 5601 5597 5594 5590 5586 5582 5579 5575 5571
5695 5694 5693 5692 5691 5689 5687 5686 5684 5681 5679 5677 5674 5671 5669 5665 5662 5659 5656 5652 5649 5646 5642 5638 5634 5631 5627 5623 5619 5615 5612 5608 5604 5600 5596 5592 5589 5585 5582 5578 5575 5571 5568 5565
5687 5686 5685 5683 5682 5680 5678 5676 5674 5671 5669 5666 5663 5661 5658 5655 5652 5648 5645 5641 5638 5635 5632 5628 5624 5621 5617 5613 5610 5606 5603 5599 5595 5592 5588 5585 5581 5578 5575 5571 5568 5565 5562 5560
5678 5677 5676 5674 5672 5670 5668 5666 5663 5661 5659 5656 5653 5650 5648 5645 5642 5638 5635 5632 5628 5625 5622 5619 5615 5612 5608 5605 5601 5598 5595 5592 5588 5585 5582 5578 5575 5572 5569 5566 5563 5560 5558 5555
5669 5668 5667 5665 5663 5661 5658 5656 5653 5651 5648 5646 5643 5640 5637 5635 5632 5628 5625 5622 5619 5616 5613 5610 5607 5604 5600 5597 5594 5591 5588 5585 5582 5579 5576 5573 5570 5567 5564 5561 5559 5556 5553 5551